Tracking 18852 objects as of 23-Nov-2017
HD Live streaming from Space Station
objects crossing your sky now

FENGYUN 1C DEB

Track FENGYUN 1C DEB now!
10-day predictions


NORAD ID: 31384
Int'l Code: 1999-025BSQ
Perigee: 640.3 km
Apogee: 1,388.0 km
Inclination: 98.5 °
Period: 105.3 minutes
Semi major axis: 7385 km
RCS: 0.0143 m2 (small)
Launch date: May 10, 1999
Source: People's Republic of China (PRC)
Launch site: Taiyaun Space Center, China (TSC)

Note: This is SATELLITE DEBRIS
aabbcc
Your satellite tracking list
Your tracking list is empty




NASA's NSSDC Master Catalog

Two Line Element Set (TLE):
1 31384U 99025BSQ 17326.69935778  .00001975  00000-0  96432-3 0  9996
2 31384  98.4871 221.3953 0506235  42.4324  10.5474 13.67926171528372
Source of the keplerian elements: AFSPC